"2009-12-13 00:00:00",1497886,6.437,297.7,7.65,1.138,8.65,102.1028,4.666,5.919,24.36,0,109.8,13.47,5.43,259.7
"2009-12-13 00:00:30",1497887,5.507,303.3,5.714,1.337,7.253,102.1031,4.666,5.899,24.37,0,109.8,13.47,5.43,265.3
"2009-12-13 00:01:00",1497888,5.861,293.5,7.972,0.772,5.549,102.1031,4.666,5.754,24.12,0,109.8,13.47,5.43,255.5
"2009-12-13 00:01:30",1497889,7.574,298.5,5.105,1.164,8.61,102.102,4.664,5.856,24.1,0,109.8,13.47,5.43,260.5
"2009-12-13 00:02:00",1497890,6.892,303.7,6.823,1.082,8.57,102.0966,4.65,5.858,24.19,0,109.8,13.47,5.42,265.7
"2009-12-13 00:02:30",1497891,6.617,302.6,8.05,1.281,8.45,102.0887,4.63,5.891,24.22,0,109.8,13.47,5.40,264.6
"2009-12-13 00:03:00",1497892,7.022,304.2,6.339,1.142,8.56,102.083,4.615,5.867,24.21,0,109.8,13.47,5.38,266.2
"2009-12-13 00:03:30",1497893,5.412,299.2,5.227,1.454,6.934,102.0763,4.598,5.814,24.14,0,109.8,13.47,5.37,261.2
"2009-12-13 00:04:00",1497894,5.354,297.6,5.391,1.112,5.564,102.0695,4.581,5.625,23.97,0,109.8,13.47,5.35,259.6
"2009-12-13 00:04:30",1497895,5.801,301.3,6.984,1.302,7.628,102.0692,4.58,5.83,24.17,0,109.8,13.48,5.35,263.3
"2009-12-13 00:05:00",1497896,5.367,297.1,7.452,1.354,8.51,102.0692,4.58,5.802,24.17,0,109.9,13.48,5.35,259.1
"2009-12-13 00:05:30",1497897,5.201,287.6,8.27,1.323,7.914,102.0692,4.58,5.827,24.24,0,109.8,13.48,5.35,249.6
"2009-12-13 00:06:00",1497898,5.29,289.2,8.87,1.196,7.741,102.0692,4.58,5.8,24.33,0,109.8,13.48,5.35,251.2
"2009-12-13 00:06:30",1497899,5.481,289.7,6.91,1.154,6.983,102.0652,4.57,5.733,24.32,0,109.8,13.48,5.34,251.7
"2009-12-13 00:07:00",1497900,4.568,277.4,4.159,0.719,4.56,102.057,4.549,5.575,23.83,0,109.8,13.48,5.32,239.4
"2009-12-13 00:07:30",1497901,5.497,283.4,8.56,1.405,7.018,102.0435,4.514,5.754,24.09,0,109.8,13.48,5.28,245.4
"2009-12-13 00:08:00",1497902,6.484,282.6,8.84,1.188,8.82,102.0361,4.495,5.823,24.28,0,109.8,13.48,5.26,244.6
"2009-12-13 00:08:30",1497903,6.859,292.9,5.715,1.139,8.31,102.0353,4.493,5.749,23.94,0,109.8,13.47,5.26,254.9
"2009-12-13 00:09:00",1497904,6.618,293.6,7.944,1.203,8.45,102.0353,4.493,5.806,23.93,0,109.8,13.47,5.26,255.6
"2009-12-13 00:09:30",1497905,6.869,295.6,7.521,1.216,7.15,102.0353,4.493,5.699,23.46,0,109.8,13.47,5.26,257.6
"2009-12-13 00:10:00",1497906,5.662,289.5,1.564,0.081,5.186,102.0353,4.493,5.633,23.18,0,109.8,13.51,5.26,251.5
"2009-12-13 00:10:30",1497907,7.377,303.4,5.657,1.09,8.95,102.0353,4.493,5.778,23.28,0,109.8,13.47,5.26,265.4
"2009-12-13 00:11:00",1497908,6.812,299.7,5.751,1.169,8.41,102.0353,4.493,5.707,23.22,0,109.8,13.48,5.26,261.7
"2009-12-13 00:11:30",1497909,6.184,301.2,7.351,1.266,7.913,102.0359,4.495,5.713,23.39,0,109.8,13.47,5.26,263.2
"2009-12-13 00:12:00",1497910,6.39,306.2,5.775,1.094,8.32,102.0356,4.494,5.744,23.8,0,109.8,13.48,5.26,268.2
"2009-12-13 00:12:30",1497911,5.806,294.2,8.65,1.187,6.511,102.037,4.498,5.646,23.88,0,109.8,13.48,5.27,256.2
"2009-12-13 00:13:00",1497912,5.839,288.8,5.511,1.257,7.183,102.0393,4.504,5.646,23.86,0,109.8,13.48,5.27,250.8
"2009-12-13 00:13:30",1497913,6.289,290.9,6.793,1.22,8.12,102.0384,4.501,5.729,24.03,0,109.8,13.48,5.27,252.9
"2009-12-13 00:14:00",1497914,7.005,296.1,5.954,1.187,8.74,102.0385,4.501,5.783,24.03,0,109.8,13.48,5.27,258.1
"2009-12-13 00:14:30",1497915,7.014,294.8,5.756,1.262,7.812,102.041,4.508,5.705,23.99,0,109.8,13.48,5.28,256.8
"2009-12-13 00:15:00",1497916,7.502,298.3,6.726,1.129,8.09,102.0413,4.509,5.708,24.12,0,109.8,13.48,5.28,260.3
"2009-12-13 00:15:30",1497917,6.694,301.9,5.464,1.217,7.59,102.0428,4.512,5.736,24.15,0,109.8,13.48,5.28,263.9
"2009-12-13 00:16:00",1497918,6.885,299.5,6.557,1.176,7.209,102.0403,4.506,5.669,24.06,0,109.8,13.48,5.27,261.5
"2009-12-13 00:16:30",1497919,7.087,307.3,6.254,1.173,8.6,102.0392,4.503,5.758,24.15,0,109.8,13.48,5.27,269.3
"2009-12-13 00:17:00",1497920,5.61,306.9,4.354,1.133,6.509,102.0387,4.502,5.615,24.12,0,109.8,13.49,5.27,268.9
"2009-12-13 00:17:30",1497921,6.176,315,6.533,1.225,7.894,102.0339,4.49,5.709,24.22,0,109.8,13.49,5.26,277.0
"2009-12-13 00:18:00",1497922,6.262,318.1,7.68,1.227,7.839,102.0319,4.485,5.709,24.32,0,109.8,13.49,5.25,280.1
"2009-12-13 00:18:30",1497923,5.731,319.5,6.317,1.234,7.122,102.0274,4.473,5.573,24.21,0,109.8,13.49,5.24,281.5
"2009-12-13 00:19:00",1497924,5.432,321.8,5.953,1.256,7.399,102.0238,4.464,5.689,24.35,0,109.8,13.49,5.23,283.8
"2009-12-13 00:19:30",1497925,5.739,322.7,5.556,1.193,8.3,102.0224,4.46,5.766,24.47,0,109.8,13.49,5.23,284.7
"2009-12-13 00:20:00",1497926,4.163,316.3,2.159,0.108,5.382,102.0215,4.458,5.523,24.32,0,109.8,13.49,5.23,278.3
"2009-12-13 00:20:30",1497927,5.175,320.6,5.502,1.253,7.786,102.0241,4.465,5.708,24.59,0,109.8,13.49,5.23,282.6
"2009-12-13 00:21:00",1497928,5.602,317.9,5.959,1.147,7.958,102.0233,4.463,5.707,24.58,0,109.8,13.49,5.23,279.9
"2009-12-13 00:21:30",1497929,5.046,313.8,6.438,1.314,7.425,102.0265,4.471,5.757,24.69,0,109.8,13.49,5.24,275.8
"2009-12-13 00:22:00",1497930,6.344,321.4,5.631,1.084,8.73,102.0262,4.47,5.684,24.64,0,109.8,13.49,5.24,283.4
"2009-12-13 00:22:30",1497931,5.809,320.4,7.01,1.264,7.821,102.027,4.472,5.657,24.63,0,109.8,13.49,5.24,282.4
"2009-12-13 00:23:00",1497932,5.336,316.5,6.737,1.186,6.363,102.0285,4.476,5.534,24.57,0,109.8,13.49,5.24,278.5
"2009-12-13 00:23:30",1497933,6.129,323,6.612,1.333,8.01,102.0245,4.466,5.68,24.86,0,109.8,13.49,5.23,285.0
"2009-12-13 00:24:00",1497934,6.814,323.9,4.936,1.059,8.62,102.0194,4.453,5.645,24.89,0,109.8,13.49,5.22,285.9
"2009-12-13 00:24:30",1497935,5.888,319.4,8.64,1.245,7.734,102.0183,4.45,5.705,24.6,0,109.8,13.49,5.22,281.4
"2009-12-13 00:25:00",1497936,5.543,317.9,10.69,1.26,8.14,102.0161,4.444,5.657,24.43,0,109.8,13.49,5.21,279.9
"2009-12-13 00:25:30",1497937,4.838,329.5,5.516,1.184,7.259,102.0085,4.425,5.684,24.34,0,109.8,13.49,5.19,291.5
"2009-12-13 00:26:00",1497938,4.302,326.6,6.165,0.656,5.446,102.004,4.413,5.492,24.4,0,109.8,13.52,5.18,288.6
"2009-12-13 00:26:30",1497939,5.182,346.6,8.16,1.271,8.34,102.0017,4.408,5.612,24.74,0,109.8,13.49,5.17,308.6
"2009-12-13 00:27:00",1497940,5.321,353.7,7.186,1.223,8.54,102.002,4.408,5.677,25.09,0,109.8,13.49,5.18,315.7
"2009-12-13 00:27:30",1497941,5.911,353.3,7.056,1.26,8.74,102.0017,4.408,5.645,24.99,0,109.8,13.49,5.17,315.3
"2009-12-13 00:28:00",1497942,4.813,358.8,8.08,1.14,8.06,102.002,4.408,5.664,25.05,0,109.8,13.49,5.18,320.8
"2009-12-13 00:28:30",1497943,4.641,351.6,6.564,1.296,6.724,102.0017,4.408,5.633,25.05,0,109.8,13.49,5.17,313.6
"2009-12-13 00:29:00",1497944,3.881,345.9,5.932,0.759,4.955,102.002,4.408,5.413,24.84,0,109.8,13.5,5.18,307.9
"2009-12-13 00:29:30",1497945,4.211,354,9.61,1.402,6.849,102.002,4.408,5.581,25.02,0,109.8,13.5,5.18,316.0
"2009-12-13 00:30:00",1497946,6.676,347.7,5.669,1.913,7.864,102.0017,4.408,5.614,25.13,0,109.8,13.5,5.17,309.7
"2009-12-13 00:30:30",1497947,7.304,348.2,4.903,0.93,9.5,101.9958,4.392,5.705,25.28,0,109.8,13.5,5.16,310.2
"2009-12-13 00:31:00",1497948,7.458,345.4,3.534,0.698,9.45,101.9868,4.369,5.709,25.27,0,109.8,13.5,5.14,307.4
"2009-12-13 00:31:30",1497949,6.219,337.5,6.297,1.181,6.939,101.9769,4.344,5.525,25.09,0,109.8,13.5,5.11,299.5
"2009-12-13 00:32:00",1497950,5.572,336.4,4.709,0.89,5.201,101.9709,4.329,5.392,24.99,0,109.8,13.5,5.10,298.4
"2009-12-13 00:32:30",1497951,4.879,335,3.472,0.604,5.447,101.9684,4.322,5.533,25.18,0,109.8,13.5,5.09,297.0
"2009-12-13 00:33:00",1497952,6.438,341.8,5.502,1.097,8.4,101.9681,4.322,5.56,25.17,0,109.8,13.5,5.09,303.8
"2009-12-13 00:33:30",1497953,6.706,338.6,5.145,0.807,9.24,101.9681,4.322,5.609,25.22,0,109.8,13.5,5.09,300.6
"2009-12-13 00:34:00",1497954,6.586,336.2,4.619,0.817,9.05,101.9681,4.322,5.589,25.2,0,109.8,13.5,5.09,298.2
"2009-12-13 00:34:30",1497955,5.764,329.3,6.525,1.174,7.375,101.9681,4.322,5.499,25.09,0,109.8,13.5,5.09,291.3
"2009-12-13 00:35:00",1497956,4.366,319.7,3.296,0.229,4.862,101.9658,4.316,5.352,24.93,0,109.8,13.54,5.08,281.7
"2009-12-13 00:35:30",1497957,5.257,322.9,6.103,1.307,7.244,101.9545,4.287,5.462,25.16,0,109.8,13.5,5.05,284.9
"2009-12-13 00:36:00",1497958,5.278,313.7,6.174,1.278,7.381,101.9409,4.252,5.497,25.3,0,109.7,13.5,5.02,275.7
"2009-12-13 00:36:30",1497959,5.859,318.7,6.207,1.133,8.89,101.9347,4.237,5.517,25.33,0,109.7,13.5,5.00,280.7
"2009-12-13 00:37:00",1497960,5.534,320.1,5.658,1.125,8.7,101.9342,4.235,5.547,25.42,0,109.8,13.5,5.00,282.1
"2009-12-13 00:37:30",1497961,4.773,317.6,6.245,1.234,7.35,101.9342,4.235,5.456,25.35,0,109.8,13.5,5.00,279.6
"2009-12-13 00:38:00",1497962,3.569,312.3,3.499,0.454,5.495,101.9342,4.235,5.406,25.35,0,109.8,13.54,5.00,274.3
"2009-12-13 00:38:30",1497963,4.588,316.7,6.675,1.261,7.379,101.9342,4.235,5.454,25.45,0,109.7,13.5,5.00,278.7
"2009-12-13 00:39:00",1497964,4.081,312.7,6.459,1.248,6.974,101.9342,4.235,5.456,25.46,0,109.7,13.51,5.00,274.7
"2009-12-13 00:39:30",1497965,4.581,309.7,5.933,1.329,8.12,101.9339,4.234,5.526,25.53,0,109.7,13.51,5.00,271.7
"2009-12-13 00:40:00",1497966,5.659,308.7,4.373,0.928,9.02,101.9336,4.234,5.551,25.59,0,109.7,13.5,5.00,270.7
"2009-12-13 00:40:30",1497967,5.614,312.7,6.017,1.2,8.79,101.9282,4.22,5.464,25.45,0,109.7,13.5,4.99,274.7
"2009-12-13 00:41:00",1497968,4.218,300.5,2.733,0.707,4.897,101.9217,4.203,5.277,25.31,0,109.8,13.5,4.97,262.5
"2009-12-13 00:41:30",1497969,4.304,300.1,4.561,0.889,5.236,101.9169,4.191,5.302,25.39,0,109.8,13.5,4.96,262.1
"2009-12-13 00:42:00",1497970,4.722,308.2,7.412,1.295,7.497,101.9144,4.185,5.341,25.45,0,109.8,13.5,4.95,270.2
"2009-12-13 00:42:30",1497971,4.717,311.5,6.056,1.272,7.317,101.9087,4.17,5.34,25.49,0,109.8,13.5,4.94,273.5
"2009-12-13 00:43:00",1497972,4.742,309.7,5.019,1.147,8.43,101.9022,4.154,5.491,25.64,0,109.8,13.5,4.92,271.7
"2009-12-13 00:43:30",1497973,4.531,311.1,6.173,1.151,8.28,101.9014,4.151,5.466,25.64,0,109.8,13.5,4.92,273.1
"2009-12-13 00:44:00",1497974,4.182,311.5,4.32,1.033,6.715,101.9028,4.155,5.351,25.55,0,109.8,13.5,4.92,273.5
"2009-12-13 00:44:30",1497975,3.553,311.5,2.944,0.232,5.125,101.9031,4.156,5.354,25.58,0,109.8,13.54,4.92,273.5
"2009-12-13 00:45:00",1497976,4.418,316.3,6.877,1.204,6.67,101.9031,4.156,5.251,25.48,0,109.8,13.5,4.92,278.3
"2009-12-13 00:45:30",1497977,5.084,319.5,6.606,1.241,8.12,101.9054,4.162,5.46,25.73,0,109.8,13.51,4.93,281.5
"2009-12-13 00:46:00",1497978,5.789,320.8,5.795,1.212,8.48,101.9043,4.159,5.464,25.76,0,109.8,13.51,4.93,282.8
"2009-12-13 00:46:30",1497979,6.472,320.6,5.487,0.782,9.12,101.8992,4.146,5.461,25.75,0,109.8,13.51,4.91,282.6
"2009-12-13 00:47:00",1497980,5.292,309,4.809,0.988,6.496,101.8924,4.128,5.271,25.59,0,109.8,13.51,4.89,271.0
"2009-12-13 00:47:30",1497981,4.553,307.9,1.374,0.271,5.009,101.8897,4.121,5.244,25.62,0,109.8,13.51,4.89,269.9
"2009-12-13 00:48:00",1497982,5.536,312.8,8.12,1.401,7.186,101.8829,4.104,5.339,25.72,0,109.8,13.51,4.87,274.8
"2009-12-13 00:48:30",1497983,5.729,309.1,7.37,1.228,7.655,101.8798,4.096,5.358,25.62,0,109.8,13.51,4.86,271.1
"2009-12-13 00:49:00",1497984,6.449,305.4,5.39,1.129,9.09,101.8784,4.093,5.429,25.66,0,109.8,13.51,4.86,267.4
"2009-12-13 00:49:30",1497985,6.485,302.9,5.524,1.135,8.97,101.8827,4.104,5.413,25.51,0,109.8,13.51,4.87,264.9
"2009-12-13 00:50:00",1497986,6.039,284.6,12.1,1.294,6.451,101.8819,4.102,5.236,24.95,0,109.8,13.51,4.87,246.6
"2009-12-13 00:50:30",1497987,6.474,282.5,6.644,1.139,6.98,101.8876,4.116,5.237,24.76,0,109.8,13.51,4.88,244.5
"2009-12-13 00:51:00",1497988,6.932,280.2,5.38,1.31,7.184,101.9015,4.152,5.345,24.89,0,109.8,13.51,4.92,242.2
"2009-12-13 00:51:30",1497989,7.324,279.1,7.261,1.338,8.08,101.9117,4.178,5.418,25.08,0,109.8,13.51,4.94,241.1
"2009-12-13 00:52:00",1497990,7.677,276.5,7.002,1.042,8.43,101.9233,4.207,5.422,25.2,0,109.8,13.51,4.97,238.5
"2009-12-13 00:52:30",1497991,8.4,275.9,4.847,0.681,9.05,101.9244,4.21,5.412,25.53,0,109.8,13.51,4.98,237.9
"2009-12-13 00:53:00",1497992,6.957,269.3,6.381,1.221,6.565,101.9247,4.211,5.313,25.5,0,109.8,13.51,4.98,231.3
"2009-12-13 00:53:30",1497993,6.029,267.4,5.23,1.095,6.237,101.9265,4.215,5.347,24.98,0,109.8,13.51,4.98,229.4
"2009-12-13 00:54:00",1497994,6.704,279.6,8.45,1.164,7.448,101.935,4.237,5.299,24.06,0,109.8,13.51,5.00,241.6
"2009-12-13 00:54:30",1497995,7.027,286,10.94,1.34,8.37,101.9417,4.254,5.472,24.28,0,109.8,13.51,5.02,248.0
"2009-12-13 00:55:00",1497996,8.34,281.5,5.978,1.139,8.38,101.9505,4.277,5.467,24.78,0,109.8,13.51,5.04,243.5
"2009-12-13 00:55:30",1497997,7.992,276.4,5.469,1.201,9.02,101.9601,4.301,5.533,24.95,0,109.8,13.52,5.07,238.4
"2009-12-13 00:56:00",1497998,8.14,275.3,6.577,1.223,8.02,101.961,4.304,5.417,24.59,0,109.8,13.51,5.07,237.3
"2009-12-13 00:56:30",1497999,8.5,277.7,6.833,1.313,9.03,101.9616,4.305,5.435,24.47,0,109.8,13.51,5.07,239.7
"2009-12-13 00:57:00",1498000,6.309,268.6,4.607,0.72,5.64,101.9806,4.354,5.38,24.03,0,109.8,13.51,5.12,230.6
"2009-12-13 00:57:30",1498001,7.135,292.3,9.62,1.564,9.16,101.9961,4.393,5.545,23.65,0,109.8,13.51,5.16,254.3
"2009-12-13 00:58:00",1498002,8.13,290.6,9.8,1.129,9.05,101.9961,4.393,5.535,23.27,0,109.8,13.51,5.16,252.6
"2009-12-13 00:58:30",1498003,8.51,284.2,5.708,1.371,8.12,102.01,4.429,5.509,23.89,0,109.8,13.51,5.20,246.2
"2009-12-13 00:59:00",1498004,9.53,281.1,6.99,1.424,8.29,102.0261,4.47,5.561,24.85,0,109.8,13.51,5.24,243.1
"2009-12-13 00:59:30",1498005,10.47,281.2,6.287,1.071,9.07,102.0317,4.484,5.577,24.83,0,109.8,13.51,5.25,243.2
"2009-12-13 01:00:00",1498006,9.98,281.9,5.654,0.98,8.96,102.034,4.49,5.662,24.59,0,109.7,13.51,5.26,243.9
"2009-12-13 01:00:30",1498007,8.73,284.5,7.005,1.507,8.49,102.0541,4.541,5.66,24.17,0,109.7,13.51,5.31,246.5
"2009-12-13 01:01:00",1498008,8.94,283.7,6.425,1.104,8.37,102.0671,4.575,5.637,24.08,0,109.8,13.51,5.34,245.7
"2009-12-13 01:01:30",1498009,7.903,287.1,6.401,1.456,6.626,102.0689,4.579,5.464,24.04,0,109.7,13.51,5.35,249.1
"2009-12-13 01:02:00",1498010,8.13,293.3,5.14,1.167,9.09,102.0816,4.611,5.71,23.97,0,109.8,13.51,5.38,255.3
"2009-12-13 01:02:30",1498011,7.387,290.8,5.548,1.211,9.27,102.0994,4.657,5.7,23.72,0,109.7,13.51,5.43,252.8
"2009-12-13 01:03:00",1498012,6.821,283.4,6.539,1.241,7.067,102.1037,4.668,5.709,23.96,0,109.8,13.51,5.44,245.4
"2009-12-13 01:03:30",1498013,7.629,281.3,7.541,1.295,8.22,102.1028,4.666,5.779,24.05,0,109.7,13.51,5.43,243.3
"2009-12-13 01:04:00",1498014,7.569,280.4,7.869,1.174,7.32,102.1042,4.669,5.721,23.64,0,109.8,13.51,5.44,242.4
"2009-12-13 01:04:30",1498015,8.49,288.5,6.513,1.313,7.756,102.1147,4.696,5.766,23.97,0,109.8,13.52,5.46,250.5
"2009-12-13 01:05:00",1498016,8.89,292.7,7.955,1.142,8.9,102.1325,4.742,5.788,23.9,0,109.7,13.52,5.51,254.7
"2009-12-13 01:05:30",1498017,8.97,295,5.229,0.951,9.61,102.1362,4.751,5.923,23.8,0,109.8,13.52,5.52,257.0
"2009-12-13 01:06:00",1498018,8.21,292.3,6.543,1.166,9.12,102.1359,4.75,5.898,23.7,0,109.8,13.51,5.52,254.3
"2009-12-13 01:06:30",1498019,6.457,290.1,5.062,1.157,6.745,102.137,4.753,5.827,23.51,0,109.8,13.51,5.52,252.1
"2009-12-13 01:07:00",1498020,7.036,291.5,6.563,1.287,7.213,102.1362,4.751,5.719,23.14,0,109.8,13.51,5.52,253.5
"2009-12-13 01:07:30",1498021,6.453,289.2,6.105,1.006,6.309,102.1382,4.756,5.842,23.5,0,109.8,13.52,5.52,251.2
"2009-12-13 01:08:00",1498022,8.32,292,6.493,1.037,9.27,102.1413,4.764,5.923,24.03,0,109.8,13.52,5.53,254.0
"2009-12-13 01:08:30",1498023,8.87,290.5,4.939,0.585,10.19,102.1475,4.78,5.985,24.39,0,109.8,13.52,5.55,252.5
"2009-12-13 01:09:00",1498024,9.19,286.7,5.126,0.744,9.78,102.1515,4.79,5.967,24.37,0,109.8,13.51,5.56,248.7
"2009-12-13 01:09:30",1498025,7.514,280.3,6.952,1.179,7.142,102.1504,4.787,5.821,24.04,0,109.8,13.52,5.56,242.3
"2009-12-13 01:10:00",1498026,6.444,283.8,5.937,1.162,6.78,102.1535,4.795,5.887,24.07,0,109.8,13.52,5.56,245.8
"2009-12-13 01:10:30",1498027,7.006,287.4,5.37,1.179,6.479,102.1591,4.81,5.738,23.76,0,109.8,13.52,5.58,249.4
"2009-12-13 01:11:00",1498028,7.347,291,6.438,0.951,9.16,102.158,4.807,5.985,23.95,0,109.8,13.52,5.58,253.0
"2009-12-13 01:11:30",1498029,7.615,294.4,5.686,0.778,10.41,102.1611,4.815,6.024,23.93,0,109.8,13.52,5.58,256.4
"2009-12-13 01:12:00",1498030,7.429,297,6.303,1.09,9.63,102.1634,4.82,5.984,23.66,0,109.8,13.52,5.59,259.0
"2009-12-13 01:12:30",1498031,6.82,300.4,5.158,1.862,7.098,102.1616,4.816,5.883,23.26,0,109.8,13.51,5.58,262.4
"2009-12-13 01:13:00",1498032,7.481,292,14.53,1.567,6.974,102.1639,4.822,5.91,23.53,0,109.8,13.52,5.59,254.0
"2009-12-13 01:13:30",1498033,9.07,311,6.087,1.165,8.73,102.1684,4.833,5.843,23.49,0,109.8,13.52,5.60,273.0
"2009-12-13 01:14:00",1498034,8,310.9,6.638,1.236,9.83,102.1701,4.838,6.047,23.92,0,109.8,13.52,5.61,272.9
"2009-12-13 01:14:30",1498035,7.159,306.9,9.13,1.151,10.07,102.171,4.84,6.042,23.99,0,109.8,13.52,5.61,268.9
"2009-12-13 01:15:00",1498036,7.165,305.4,7.06,0.76,9.93,102.1701,4.838,6.014,23.74,0,109.8,13.51,5.61,267.4
"2009-12-13 01:15:30",1498037,5.469,292.8,10.71,1.027,6.083,102.173,4.845,5.826,23.64,0,109.8,13.51,5.61,254.8
"2009-12-13 01:16:00",1498038,5.925,290.3,7.207,1.102,7.315,102.1781,4.858,5.937,23.95,0,109.8,13.51,5.63,252.3
"2009-12-13 01:16:30",1498039,7.644,286.9,11.55,1.735,5.89,102.1846,4.875,5.82,24.01,0,109.8,13.51,5.64,248.9
"2009-12-13 01:17:00",1498040,9.83,305.7,5.85,1.261,9.81,102.1857,4.877,6.07,24.34,0,109.8,13.51,5.65,267.7
"2009-12-13 01:17:30",1498041,9.24,305.6,5.376,0.891,9.91,102.1848,4.875,6.097,24.5,0,109.8,13.52,5.64,267.6
"2009-12-13 01:18:00",1498042,9.71,298.5,5.022,0.879,10.17,102.1848,4.875,6.126,24.64,0,109.8,13.52,5.64,260.5
"2009-12-13 01:18:30",1498043,9.43,297.1,7.1,0.841,10,102.1879,4.883,6.119,24.72,0,109.8,13.52,5.65,259.1
"2009-12-13 01:19:00",1498044,8.16,295.8,5.627,1.562,8.74,102.1876,4.882,6.1,24.71,0,109.8,13.52,5.65,257.8
"2009-12-13 01:19:30",1498045,6.758,297.6,10.77,1.158,5.732,102.1959,4.903,5.833,24.43,0,109.8,13.52,5.67,259.6
"2009-12-13 01:20:00",1498046,6.651,292.5,11.58,1.342,6.991,102.1854,4.877,5.941,24.53,0,109.8,13.52,5.65,254.5
"2009-12-13 01:20:30",1498047,5.972,285.3,11.76,1.117,6.612,102.1865,4.88,5.988,24.6,0,109.8,13.52,5.65,247.3
"2009-12-13 01:21:00",1498048,7.293,292.1,5.163,1.223,9.11,102.1842,4.874,6.073,24.75,0,109.8,13.52,5.64,254.1
"2009-12-13 01:21:30",1498049,7.208,296.7,5.495,0.925,9.6,102.1794,4.861,6.126,24.83,0,109.8,13.52,5.63,258.7
"2009-12-13 01:22:00",1498050,7.978,298.3,5.434,0.896,9.56,102.1735,4.846,6.092,24.87,0,109.8,13.52,5.62,260.3
"2009-12-13 01:22:30",1498051,6.145,289.2,4.939,0.971,6.27,102.171,4.84,5.998,24.85,0,109.8,13.52,5.61,251.2
"2009-12-13 01:23:00",1498052,6.935,291,6.763,1.084,6.601,102.1707,4.839,5.968,24.78,0,109.8,13.52,5.61,253.0
"2009-12-13 01:23:30",1498053,7.864,295.6,6.256,1.209,7.74,102.1707,4.839,5.917,24.63,0,109.8,13.52,5.61,257.6
"2009-12-13 01:24:00",1498054,8.08,296.9,5.942,1.191,8.69,102.1695,4.836,6.053,24.78,0,109.8,13.52,5.60,258.9
"2009-12-13 01:24:30",1498055,8.51,292.4,6.333,1.199,9.81,102.1713,4.841,6.089,25.05,0,109.8,13.52,5.61,254.4
"2009-12-13 01:25:00",1498056,7.809,296.8,5.724,1.309,8.57,102.1704,4.838,6.064,25.06,0,109.8,13.52,5.61,258.8
"2009-12-13 01:25:30",1498057,8.65,288.7,5.244,1.216,8.93,102.1707,4.839,6.007,25.02,0,109.8,13.52,5.61,250.7
"2009-12-13 01:26:00",1498058,7.154,284.2,10.28,1.229,7.449,102.1693,4.835,6.015,25.35,0,109.8,13.52,5.60,246.2
"2009-12-13 01:26:30",1498059,7.135,290.3,6.489,1.362,6.731,102.1707,4.839,5.89,25.07,0,109.8,13.52,5.61,252.3
"2009-12-13 01:27:00",1498060,7.77,297,8.06,1.319,8.33,102.169,4.835,5.999,25.01,0,109.8,13.52,5.60,259.0
"2009-12-13 01:27:30",1498061,7.992,296.2,5.634,1.188,8.86,102.1662,4.828,6.028,25.1,0,109.8,13.52,5.60,258.2
"2009-12-13 01:28:00",1498062,8.15,301.2,5.191,1.121,9.04,102.1591,4.809,6.038,24.97,0,109.8,13.52,5.58,263.2
"2009-12-13 01:28:30",1498063,7.775,296.8,5.81,1.185,9.06,102.1565,4.803,6.06,24.71,0,109.8,13.52,5.57,258.8
"2009-12-13 01:29:00",1498064,7.949,293.6,9.24,1.709,7.858,102.1591,4.81,5.943,24.62,0,109.8,13.51,5.58,255.6
"2009-12-13 01:29:30",1498065,7.872,287.3,6.932,1.121,7.61,102.156,4.801,5.992,24.94,0,109.8,13.51,5.57,249.3
"2009-12-13 01:30:00",1498066,8.62,289.5,6.636,1.27,8.56,102.1563,4.802,5.921,24.8,0,109.8,13.51,5.57,251.5
"2009-12-13 01:30:30",1498067,8.29,289.3,6.302,1.198,9.21,102.1579,4.806,6.025,24.94,0,109.8,13.51,5.58,251.3
"2009-12-13 01:31:00",1498068,9.1,280,7.122,1.297,9.03,102.1591,4.809,6.02,25.25,0,109.8,13.51,5.58,242.0
"2009-12-13 01:31:30",1498069,9.35,282.7,4.389,0.674,9.86,102.1596,4.811,6.045,25.32,0,109.8,13.51,5.58,244.7
"2009-12-13 01:32:00",1498070,8,283.5,6.034,1.172,8.18,102.1628,4.819,5.987,25.31,0,109.7,13.51,5.59,245.5
"2009-12-13 01:32:30",1498071,7.108,282.8,6.643,0.941,6.153,102.1645,4.823,5.82,25.2,0,109.8,13.51,5.59,244.8
"2009-12-13 01:33:00",1498072,8.92,286.3,6.609,1.417,8.11,102.1659,4.827,5.981,25.55,0,109.8,13.51,5.60,248.3
"2009-12-13 01:33:30",1498073,8.74,288.5,4.36,1.136,8.9,102.1645,4.823,5.953,25.63,0,109.8,13.51,5.59,250.5
"2009-12-13 01:34:00",1498074,8.56,292.8,8.29,1.169,9.39,102.1665,4.828,6.082,25.56,0,109.8,13.52,5.60,254.8
"2009-12-13 01:34:30",1498075,9.05,299.4,3.744,0.581,9.83,102.165,4.825,6.034,25.26,0,109.8,13.52,5.59,261.4
"2009-12-13 01:35:00",1498076,7.453,291.1,7.248,1.064,7.631,102.1673,4.83,6.023,25.32,0,109.8,13.52,5.60,253.1
"2009-12-13 01:35:30",1498077,8.7,288.4,5.587,1.07,7.414,102.1679,4.832,5.871,25.34,0,109.8,13.52,5.60,250.4
"2009-12-13 01:36:00",1498078,9.29,286.9,6.451,1.044,8.04,102.171,4.84,5.99,25.6,0,109.8,13.52,5.61,248.9
"2009-12-13 01:36:30",1498079,9.65,287.8,6.104,1.25,9.17,102.1679,4.832,6.012,25.72,0,109.7,13.52,5.60,249.8
"2009-12-13 01:37:00",1498080,10.33,295.1,3.62,0.896,10.26,102.1687,4.834,6.092,25.84,0,109.8,13.52,5.60,257.1
"2009-12-13 01:37:30",1498081,10.43,294.3,4.207,0.782,9.97,102.1704,4.838,6.081,25.87,0,109.8,13.52,5.61,256.3
"2009-12-13 01:38:00",1498082,10.08,290.1,5.811,1.077,9,102.1713,4.841,6.025,25.87,0,109.8,13.52,5.61,252.1
"2009-12-13 01:38:30",1498083,9.92,285.9,5.767,1.383,7.342,102.1707,4.839,5.849,25.83,0,109.8,13.52,5.61,247.9
"2009-12-13 01:39:00",1498084,9.44,288,6.803,1.051,7.587,102.1713,4.841,5.936,25.94,0,109.8,13.52,5.61,250.0
"2009-12-13 01:39:30",1498085,9.41,289.4,5.075,1.044,8.75,102.1701,4.838,6.037,26.1,0,109.8,13.52,5.61,251.4
"2009-12-13 01:40:00",1498086,9.87,287.7,5.058,1.044,9.65,102.1687,4.834,6.048,26.03,0,109.8,13.52,5.60,249.7
"2009-12-13 01:40:30",1498087,9.51,291.7,5.116,0.971,9.45,102.169,4.835,6.052,25.98,0,109.8,13.52,5.60,253.7
"2009-12-13 01:41:00",1498088,10.21,290.1,4.994,0.945,9.65,102.167,4.83,6.024,25.93,0,109.8,13.52,5.60,252.1
"2009-12-13 01:41:30",1498089,9.55,288.7,5.729,1.107,9.18,102.1659,4.827,6.064,25.94,0,109.8,13.52,5.60,250.7
"2009-12-13 01:42:00",1498090,8.39,289.3,6.425,1.082,7.963,102.163,4.819,5.972,25.89,0,109.8,13.52,5.59,251.3
"2009-12-13 01:42:30",1498091,8.19,290.9,5.438,1.114,7.194,102.1616,4.816,5.941,25.93,0,109.8,13.52,5.58,252.9
"2009-12-13 01:43:00",1498092,7.692,287.6,6.885,1.029,7.072,102.1605,4.813,5.962,26.04,0,109.8,13.52,5.58,249.6
"2009-12-13 01:43:30",1498093,8.42,290.4,5.229,0.952,8.99,102.1594,4.81,6.009,26.07,0,109.8,13.52,5.58,252.4
"2009-12-13 01:44:00",1498094,8.52,285.3,6.442,1.163,9.22,102.1557,4.801,6.014,26.01,0,109.8,13.52,5.57,247.3
"2009-12-13 01:44:30",1498095,9.26,288.3,4.075,0.714,10.02,102.1492,4.784,6.075,26.02,0,109.8,13.52,5.55,250.3
"2009-12-13 01:45:00",1498096,7.729,284.6,6.133,1.297,7.657,102.15,4.786,5.982,25.92,0,109.8,13.51,5.56,246.6
"2009-12-13 01:45:30",1498097,8.28,289,4.625,1.162,8.69,102.1492,4.784,5.94,25.89,0,109.8,13.51,5.55,251.0
"2009-12-13 01:46:00",1498098,7.11,282.6,6.906,1.268,6.719,102.15,4.786,5.837,25.79,0,109.8,13.51,5.56,244.6
"2009-12-13 01:46:30",1498099,7.676,287.9,5.693,1.268,7.848,102.1495,4.785,5.923,25.89,0,109.8,13.51,5.55,249.9
"2009-12-13 01:47:00",1498100,7.872,288.2,6.352,1.144,8.85,102.1436,4.77,5.956,26.03,0,109.8,13.51,5.54,250.2
"2009-12-13 01:47:30",1498101,7.679,294.6,4.211,0.887,9.67,102.1379,4.755,6.017,26.08,0,109.8,13.51,5.52,256.6
"2009-12-13 01:48:00",1498102,7.135,288.1,5.279,1.288,8.23,102.137,4.753,5.921,26,0,109.8,13.51,5.52,250.1
"2009-12-13 01:48:30",1498103,6.836,287,7.121,1.109,6.997,102.1373,4.754,5.907,25.96,0,109.8,13.51,5.52,249.0